Weather History for Greenville, AL

Change the Weather History Date:

Sunday, December 28, 2014

  Actual Average Record
Temperature  
Mean Temperature 64 °F -  
Max Temperature 72 °F 62 °F 80 °F (1984)
Min Temperature 57 °F 38 °F 19 °F (2010)
Growing Degree Days 14 (Base 50)    
Moisture  
Dew Point 60 °F    
Average Humidity 89    
Maximum Humidity 100    
Minimum Humidity 71    
Precipitation  
Precipitation 0.58 in - - ()
Sea Level Pressure  
Sea Level Pressure 30.05 in    
Wind  
Wind Speed 5 mph (SW)    
Max Wind Speed 8 mph    
Max Gust Speed -    
Visibility 7 miles    
Events Rain    
Averages and records for this station are not official NWS values.
T = Trace of Precipitation, MM = Missing Value Source: NWS Daily Summary

Daily Weather History Graph

Daily Weather History Graph

Search for Another Location

Airport:

Trip Planner

Search our weather history database for the weather conditions in past years. The results will help you decide how hot, cold, wet, or windy it might be!

Date:

Astronomy

Dec. 28, 2014 Rise Set
Actual Time 6:45 AM CST 4:50 PM CST
Civil Twilight 6:18 AM CST 5:17 PM CST
Nautical Twilight 5:48 AM CST 5:48 PM CST
Astronomical Twilight 5:18 AM CST 6:17 PM CST
Moon 11:32 AM CST (12/28) No Moon Set
Length of Visible Light 10h 59m
Length of Day
10h 05m
Waxing Crescent, 50% of the Moon is Illuminated
Dec 28
Waxing Crescent
Dec 28
First Quarter
Jan 4
Full
Jan 13
Last Quarter
Jan 20
New

Hourly Weather History & Observations

Time (CST) Temp. Dew Point Humidity Pressure Visibility Wind Dir Wind Speed Gust Speed Precip Events Conditions
12:56 AM 57.0 °F 52.0 °F 83% 30.07 in 10.0 mi SSE 8.1 mph - N/A   Overcast
1:56 AM 57.0 °F 53.1 °F 87% 30.07 in 10.0 mi SSE 3.5 mph - N/A   Overcast
2:06 AM 57.2 °F 53.6 °F 88% 30.07 in 10.0 mi SSE 3.5 mph - N/A   Overcast
2:56 AM 57.9 °F 54.0 °F 87% 30.06 in 10.0 mi SSE 4.6 mph - 0.00 in   Overcast
3:48 AM 57.2 °F 55.4 °F 94% 30.05 in 1.8 mi South 6.9 mph - 0.08 in Rain Heavy Rain
3:54 AM 57.2 °F 55.4 °F 94% 30.05 in 3.0 mi South 5.8 mph - 0.08 in Rain Light Rain
3:56 AM 57.9 °F 55.9 °F 93% 30.05 in 4.0 mi South 5.8 mph - 0.08 in Rain Light Rain
4:11 AM 57.2 °F 55.4 °F 94% 30.06 in 9.0 mi South 5.8 mph - 0.01 in   Overcast
5:19 AM 57.2 °F 57.2 °F 100% 30.07 in 1.8 mi SSW 3.5 mph - 0.09 in Rain Heavy Rain
5:52 AM 60.8 °F 57.2 °F 88% 30.07 in 3.0 mi West 5.8 mph - 0.31 in Rain Light Rain
5:56 AM 60.1 °F 57.9 °F 93% 30.07 in 2.5 mi West 5.8 mph - 0.34 in Rain Heavy Rain
6:10 AM 60.8 °F 59.0 °F 94% 30.07 in 6.0 mi South 6.9 mph - 0.02 in Rain Light Rain
6:18 AM 60.8 °F 59.0 °F 94% 30.08 in 1.8 mi SSW 8.1 mph - 0.11 in Rain Heavy Rain
6:25 AM 60.8 °F 59.0 °F 94% 30.08 in 3.0 mi SW 4.6 mph - 0.11 in Rain Light Rain
6:40 AM 60.8 °F 59.0 °F 94% 30.08 in 7.0 mi SW 3.5 mph - 0.12 in Rain Light Rain
6:52 AM 60.8 °F 59.0 °F 94% 30.08 in 9.0 mi SSW 4.6 mph - 0.12 in   Overcast
6:56 AM 61.0 °F 59.0 °F 93% 30.08 in 10.0 mi SW 4.6 mph - 0.12 in   Overcast
7:45 AM 62.6 °F 60.8 °F 94% 30.08 in 2.5 mi SSW 3.5 mph - 0.02 in Rain Light Rain
7:56 AM 62.1 °F 60.1 °F 93% 30.09 in 2.5 mi SW 4.6 mph - 0.02 in Rain Light Rain
8:12 AM 62.6 °F 60.8 °F 94% 30.10 in 1.5 mi Calm Calm - 0.01 in Rain Light Rain
8:23 AM 62.6 °F 60.8 °F 94% 30.10 in 3.0 mi Calm Calm - 0.02 in Rain Light Rain
8:41 AM 62.6 °F 60.8 °F 94% 30.10 in 8.0 mi SW 3.5 mph - 0.02 in   Overcast
8:56 AM 63.0 °F 62.1 °F 97% 30.09 in 10.0 mi South 4.6 mph - 0.02 in   Overcast
9:56 AM 66.0 °F 64.0 °F 93% 30.08 in 9.0 mi Variable 3.5 mph - N/A   Overcast
10:56 AM 66.9 °F 64.0 °F 90% 30.07 in 9.0 mi SSW 4.6 mph - N/A   Overcast
11:14 AM 69.8 °F 64.4 °F 83% 30.07 in 10.0 mi SW 4.6 mph - N/A   Overcast
11:29 AM 69.8 °F 64.4 °F 83% 30.06 in 10.0 mi SW 4.6 mph - N/A   Overcast
11:56 AM 69.1 °F 64.0 °F 84% 30.04 in 10.0 mi WSW 6.9 mph - N/A   Overcast
12:29 PM 69.8 °F 64.4 °F 83% 30.04 in 10.0 mi WSW 4.6 mph - N/A   Overcast
12:56 PM 71.1 °F 64.9 °F 81% 30.02 in 10.0 mi Variable 4.6 mph - N/A   Mostly Cloudy
1:56 PM 71.1 °F 64.0 °F 78% 30.01 in 10.0 mi Calm Calm - N/A   Overcast
2:56 PM 72.0 °F 62.1 °F 71% 30.01 in 10.0 mi NNW 8.1 mph - N/A   Overcast
3:23 PM 69.8 °F 62.6 °F 78% 30.02 in 10.0 mi North 8.1 mph - N/A   Overcast
3:35 PM 68.0 °F 62.6 °F 83% 30.02 in 10.0 mi NE 8.1 mph - N/A   Overcast
3:56 PM 66.9 °F 62.1 °F 84% 30.02 in 10.0 mi NNE 4.6 mph - N/A   Overcast
4:19 PM 66.2 °F 62.6 °F 88% 30.03 in 10.0 mi NNE 5.8 mph - N/A   Overcast
4:56 PM 64.9 °F 61.0 °F 87% 30.02 in 10.0 mi NE 4.6 mph - N/A   Overcast
5:05 PM 64.4 °F 60.8 °F 88% 30.02 in 10.0 mi NE 4.6 mph - N/A   Overcast
5:42 PM 64.4 °F 60.8 °F 88% 30.03 in 10.0 mi Calm Calm - N/A   Overcast
5:56 PM 64.0 °F 61.0 °F 90% 30.03 in 10.0 mi North 3.5 mph - N/A   Overcast
6:32 PM 64.4 °F 60.8 °F 88% 30.03 in 9.0 mi Calm Calm - N/A   Overcast
6:56 PM 64.0 °F 61.0 °F 90% 30.02 in 9.0 mi NNE 3.5 mph - N/A   Overcast
7:06 PM 64.4 °F 60.8 °F 88% 30.03 in 9.0 mi NE 3.5 mph - N/A   Overcast
7:39 PM 64.4 °F 60.8 °F 88% 30.03 in 8.0 mi North 3.5 mph - N/A   Overcast
7:56 PM 64.0 °F 61.0 °F 90% 30.01 in 8.0 mi NE 6.9 mph - N/A   Overcast
8:53 PM 62.6 °F 60.8 °F 94% 30.04 in 8.0 mi NW 3.5 mph - N/A   Overcast
8:56 PM 63.0 °F 60.1 °F 90% 30.03 in 8.0 mi NNW 5.8 mph - N/A   Overcast
9:56 PM 62.1 °F 60.1 °F 93% 30.04 in 4.0 mi NNE 3.5 mph - N/A   Overcast
10:56 PM 62.1 °F 60.1 °F 93% 30.03 in 2.5 mi Calm Calm - N/A   Overcast
11:56 PM 61.0 °F 59.0 °F 93% 30.05 in 2.5 mi NW 5.8 mph - N/A   Overcast